Location: ??????????
(54.7560°N, 39.1389°E)
Time: 14:56:32
(UTC+00:00)

NOSS 3-2 (C) - Pass Details

Date: 19 May 2025
Orbit: 686 x 1523 km, 63.4° (Epoch: 04 June)

Event Time Altitude Azimuth Distance (km) Brightness Sun altitude
Rises 22:58:15 0° 311° (NW) 3,791 6.8 -12.4°
Reaches altitude 10° 23:00:42 10° 308° (NW) 2,947 6.2 -12.2°
Maximum altitude 23:07:43 63° 230° (SW) 1,394 4.1 -11.8°
Drops below altitude 10° 23:16:11 10° 152° (SSE) 3,512 6.1 -11.2°
Sets 23:19:20 0° 150° (SSE) 4,561 6.7 -11.0°
